[Iaude] MPEC D76: 2024 DX [a=1.16,e=0.34,i=1.0,H=27.2]
    mpec at cfa.harvard.edu 
    mpec at cfa.harvard.edu
       
    Mon Feb 19 22:16:10 EST 2024
    
    
  
M.P.E.C. 2024-D76                             Issued 2024 February 20, 03:14 UT
     The Minor Planet Electronic Circulars contain information on unusual
         minor planets, routine data on comets and natural satellites,
         and occasional editorial announcements.  They are published
    on behalf of Division F of the International Astronomical Union by the
          Minor Planet Center, Smithsonian Astrophysical Observatory,
                          Cambridge, MA 02138, U.S.A.
			  
             Prepared using the Tamkin Foundation Computer Network
                              MPC at CFA.HARVARD.EDU
            URL https://www.minorplanetcenter.net/    ISSN 1523-6714
                                    2024 DX                                     
Observations:
     K24D00X*1C2024 02 19.28837911 07 28.873+21 08 21.95               VED076G96
     K24D00X 1C2024 02 19.29352211 07 33.193+21 09 01.66               VED076G96
     K24D00X 1C2024 02 19.29865511 07 37.474+21 09 37.98         19.38GVED076G96
     K24D00X 1C2024 02 19.30379311 07 41.779+21 10 16.18         19.57GVED076G96
     K24D00X KC2024 02 19.43301811 09 33.296+21 26 00.17         19.50GVED076I52
     K24D00X KC2024 02 19.44924911 09 48.208+21 27 57.28         19.57GVED076I52
     K24D00X KC2024 02 19.45174911 09 50.548+21 28 15.28         19.56GVED076I52
     K24D00X  C2024 02 19.47751711 10 14.019+21 31 03.73         19.0 GVED076H01
     K24D00X  C2024 02 19.48066011 10 17.070+21 31 26.05         19.4 GVED076H01
     K24D00X  C2024 02 19.49251511 10 28.744+21 32 50.88         19.4 GVED076H01
     K24D00X  C2024 02 19.49811711 10 34.325+21 33 31.00         18.9 GVED076H01
     K24D00X KC2024 02 19.75704 11 16 33.55 +22 11 27.3          19.5 rZED076C97
     K24D00X KC2024 02 19.76775 11 16 46.31 +22 13 11.7          19.6 rZED076C97
     K24D00X KC2024 02 19.77847 11 16 59.16 +22 14 59.0          19.0 rZED076C97
     K24D00X KC2024 02 19.78919 11 17 11.84 +22 16 44.9          18.9 rZED076C97
     K24D00X KC2024 02 19.83280911 18 15.666+22 19 45.98         19.2 GVED076K63
     K24D00X KC2024 02 19.84333411 18 29.701+22 21 33.14         18.8 GVED076K63
     K24D00X KC2024 02 19.85330811 18 43.075+22 23 15.87         20.0 GVED076K63
     K24D00X SC2024 02 19.88050511 19 17.90 +22 27 50.4          19.5 GXED076595
     K24D00X KC2024 02 19.88761111 19 27.42 +22 29 03.6          19.1 GXED076595
     K24D00X SC2024 02 19.89044911 19 31.19 +22 29 32.8          19.1 GXED076595
     K24D00X KC2024 02 19.99512911 21 53.41 +22 47 56.2          18.9 GVED076L01
     K24D00X KC2024 02 19.99685711 21 55.81 +22 48 14.4          18.9 GVED076L01
     K24D00X KC2024 02 19.99858511 21 58.20 +22 48 32.5          18.8 GVED076L01
     K24D00X KC2024 02 20.00031111 22 00.60 +22 48 50.8          19.1 GVED076L01
     K24D00X KC2024 02 20.00203611 22 03.00 +22 49 09.0          19.0 GVED076L01
Observer details:
595 Farra d'Isonzo.  Observer E. Pettarin.  0.61-m f/4.5 reflector + CCD.
C97 Al-Fulaij Observatory, Oman.  Observers A. Al-Haji, N. Al-Umairi, A. Al-
    Ruqaishi.  0.61-m f/7.8 reflector + CCD.
G96 Mt. Lemmon Survey.  Observers T. Beuden, G. J. Leonard.  Measurers T.
    Beuden, V. F. Carvajal, D. Fay, J. B. Fazekas, D. C. Fuls, A. R. Gibbs, A.
    D. Grauer, H. Groeller, J. K. Hogan, R. A. Kowalski, S. M. Larson, G. J.
    Leonard, D. Rankin, R. L. Seaman, F. C. Shelly, K. W. Wierzchos.  1.5-m
    reflector + 10K CCD.
H01 Magdalena Ridge Observatory, Socorro.  Observers W. H. Ryan, E. V. Ryan.
    Measurer W. H. Ryan.  2.4-m f/8.9 Ritchey-Chretien + CCD.
I52 Steward Observatory, Mt. Lemmon Station.  Observer J. B. Fazekas.
    Measurers E. C. Beshore, D. Fay, J. B. Fazekas, D. C. Fuls, A. R. Gibbs,
    A. D. Grauer, H. Groeller, J. K. Hogan, R. A. Kowalski, S. M. Larson, G.
    J. Leonard, D. Rankin, R. L. Seaman, F. C. Shelly, K. W. Wierzchos.  1.0-m
    prime focus + CCD.
K63 G. Pascoli Observatory, Castelvecchio Pascoli.  Observer R. Bacci.  0.41-m
    f/3.75 Reflector + CCD.
L01 Visnjan Observatory, Tican.  Observer K. Korlevic.  1.0-m f/2.9 reflector
    + CCD.
Orbital elements:
2024 DX                                                  Earth MOID = 0.0041 AU
Epoch 2024 Mar. 31.0 TT = JDT 2460400.5                 Veres                   
M 343.14924              (2000.0)            P               Q                  
n   0.78421664     Peri.  249.49177     -0.55774997     +0.82999861             
a   1.1646051      Node   346.60549     -0.75467724     -0.50920678             
e   0.3387559      Incl.    1.02812     -0.34551011     -0.22761978             
P   1.26           H   27.27          G   0.15           U   7                  
Residuals in seconds of arc
240219 G96  0.4-  0.1-    240219 H01  0.0   0.1-    240219 595  0.4-  0.4+
240219 G96  0.1+  1.5+    240219 H01  0.1-  0.1-    240219 595  0.1-  0.1-
240219 G96  0.1+  0.1-    240219 C97  0.6-  1.0+    240219 595  0.4-  0.4-
240219 G96  0.3+  0.2+    240219 C97  0.5-  0.8-    240219 L01  0.1+  0.2-
240219 I52  0.0   0.1-    240219 C97  0.9+  0.2+    240219 L01  0.1+  0.3-
240219 I52  0.0   0.1-    240219 C97  0.1-  0.4-    240219 L01  0.1-  0.4-
240219 I52  0.2+  0.1-    240219 K63  0.5+  0.7+    240220 L01  0.1-  0.3-
240219 H01  0.0   0.1+    240219 K63  0.1-  0.0     240220 L01  0.2-  0.4-
240219 H01  0.1-  0.1-    240219 K63  0.3+  0.0
Ephemeris:
2024 DX                  a,e,i = 1.16, 0.34, 1                   q = 0.7701
Date    TT    R. A. (2000) Decl.     Delta      r    Elong.  Phase     V
2024 01 21    10 11 21.3 +14 49 07   0.2123  1.1733   150.4    24.5    25.4
...
2024 02 05    10 22 01.9 +15 15 18   0.1084  1.0899   162.9    15.4    23.5
...
2024 02 13    10 31 36.7 +16 29 34   0.05815 1.0441   168.0    11.4    21.9
...
2024 02 19    11 02 57.7 +20 38 16   0.02217 1.0097   163.7    15.9    19.9
2024 02 20    11 21 55.3 +22 52 05   0.01640 1.0039   159.4    20.3    19.4
2024 02 21    12 02 35.3 +26 56 36   0.01088 0.9982   149.9    29.8    18.7
...
2024 02 27    21 37 11.5 -08 17 02   0.02695 0.9641    14.8   164.8    32.4
...
2024 03 06    22 02 52.1 -12 02 55   0.07567 0.9200    17.0   161.6    33.0
...
2024 03 21    22 17 26.1 -12 24 31   0.1762  0.8460    28.8   145.4    30.8
M. P. C. Staff               (C) Copyright 2024 MPC           M.P.E.C. 2024-D76
    
    
More information about the Iaude
mailing list